→ wwfjericho: 統一換血中 10/02 17:57
→ www90173: 哥布林扛中心棒次.....@0@ 10/02 17:57
推 starchiang: 不是潘威倫阿? 10/02 17:57
推 Edison1174: 非常有觀念 10/02 17:59
推 andyll2: 練兵吧 10/02 17:59
噓 wh0386: 陽冠威左外= = 統一往那打就對了 10/02 17:59
推 Klan: 兩隊都在搶狀元 10/02 17:59
推 blackmochi: 借轉 10/02 18:00
※ blackmochi:轉錄至看板 Lions 10/02 18:00
推 Rainlilt: 原來中職有這兩隊0.o? 10/02 18:00
→ hicker: 因為昨天沒打成 所以改先發吧 10/02 18:00
推 SpringOcean: 泰山QQ 10/02 18:02
推 Powar: 林志祥咧 12強選手沒先發? 10/02 18:03
推 Allen524: 陽冠威LF,偉哉小業..哈哈 10/02 18:04
→ suzy0717: 小破咧 10/02 18:05
推 ils0104: 統一要讓老將休息啊~前面新聞有講~基哥也可以休了吧.... 10/02 18:07
推 www90173: '狀元大戰 10/02 18:09
推 Luao47: 最該休的沒休 什麼鬼 10/02 18:14
推 zxc70227: 統一其實可以從二軍抓吳國豪上來練看看 10/02 18:15
→ zxc70227: 這樣小廣3B 郭肉SS 國豪2B 真新血打線 10/02 18:15
→ kenshin11: 陽冠威 黃智培 林瑋恩...棒球場左半邊三連星 10/02 18:21
推 sinon2mayday: 義大有夠練兵 10/02 18:29
※ 編輯: hicker (61.228.24.27), 10/02/2015 18:31:01
推 m85037: 好少人 10/02 18:31
噓 A73240010: 跳ˇ的有夠爛..... 10/02 18:32
→ WongTakashi: VL-S 張立群 鄭幸生 10/02 18:32
※ 編輯: hicker (61.228.24.27), 10/02/2015 18:33:11
※ 編輯: hicker (61.228.24.27), 10/02/2015 18:34:53
推 hsr7016: 又下雨www 10/02 18:35
→ Sheng98: 棒球之神表示: 10/02 18:37
推 jj1004: 倪比羅強多了 10/02 18:38
推 thirdblue: 過山洞 10/02 18:38
推 hsr7016: E 10/02 18:38
→ hicker: 我要去看兄弟爭冠軍 雨神你來代班 10/02 18:38
推 yyc1217: 熟悉的咖啡最對味 10/02 18:38
推 kings200207: 正常發揮 10/02 18:39
推 EasyVinus: 果然簡單的都不會接 10/02 18:39
推 WasHenryTsen: 這誰 10/02 18:41
推 m85037: Chi Chi 綺綺 10/02 18:41
→ smithyu: 下午5點半的時候有下一陣雨.一樣只在球場這...... 10/02 18:43
推 m85037: 火哥專打歪國人 10/02 18:45
推 cwud159nfss: 來吧 10/02 18:46
→ kress: 大難不死必__ 10/02 18:47
→ rock0525: E大主場....XDDDD 10/02 18:47
推 yyc1217: 這迴音也太嚴重了 聽著真的很不舒服... 10/02 18:47
推 mowkow0611: 114 10/02 18:49
推 kress: 這球有旋到 不然正常滾動應該回不來 10/02 18:49
推 m85037: 114 10/02 18:50
推 jj1004: 賈斯丁舊了 義大怕新的 10/02 18:50
推 howard9966: Record push ! 10/02 18:50
推 kress: 出去囉 10/02 18:51
推 straight0711: 尻 10/02 18:51
推 thirdblue: 冠威炸裂!! 10/02 18:51
→ straight0711: 頭盔高 10/02 18:51
→ jj1004: 果然 舊了 10/02 18:51
推 yyc1217: 不是那個賈賈 不用怕 10/02 18:52
推 bahamutuh: Allen524: 陽冠威LF,偉哉小業..哈哈 10/02 18:53
→ m85037: Peggy 10/02 18:55
→ a1len: 第一局失誤安打分數通通開張XD 統一還是完美的狀態 10/02 18:57
※ 編輯: hicker (61.228.24.27), 10/02/2015 18:59:27
推 TAKEZOU: 統一搶狀元太明顯 10/02 19:02
→ ai03lee: 每次都覺得澄清湖kiss cam主持人口氣超嗆..... 10/02 19:04
→ smithyu: 回音是轉播收音的問題.在現場聽沒有回音的問題 10/02 19:04
推 smallq29: 偉哉524 朝聖 10/02 19:04
推 TAKEZOU: 隨便打都安 該換了吧 10/02 19:05
推 kress: 如果連咖啡都安的話就... 10/02 19:06
推 karen71014: 咖啡扣打一直累積下去後面會炸裂嗎 10/02 19:07
推 Ogrish: 現場真的沒回音問題~跟電視聽到差很多 10/02 19:08
推 ivan609: 老胡想當好人 10/02 19:08
→ smithyu: 好人喵.幫冠威做外野的高飛守備練習 10/02 19:12
→ shirvan: 幹嘛一直拍人家吃東西! 10/02 19:14
推 forfan: 還我3B冠威 10/02 19:17
推 encorej77107: 球沒彈起來 這球難接 10/02 19:17
推 yyc1217: 希望智培等下道個歉 10/02 19:17
推 Ogrish: 我要冠威守3壘…… 10/02 19:18
推 ivan609: NI丟人了... 10/02 19:18
→ TAKEZOU: 喵喵狀元搶太兇 葉總看不下去了 10/02 19:21
→ straight0711: 打牆 10/02 19:22
推 a200147: 定板 10/02 19:22
推 hbk20491: =================12強投手 倪!!!!!!!================= 10/02 19:23
→ Isaac: 郭奶嬸水喔 POWER 90 10/02 19:23
推 ruchael: 直球投太閃了... 10/02 19:23
→ Isaac: 打爆倪不挑!! 10/02 19:23
推 yyc1217: 喵喵:才不會把狀元讓給你呢 10/02 19:23
→ lovelife9999: 不舉… 10/02 19:26
推 m85037: 144不舉 10/02 19:26
推 ruchael: 領先1分就放心了喔...想想RP有多爛... 10/02 19:27
推 jj1004: 某人到底多討厭倪... 10/02 19:28
→ Isaac: 沒銷到好球帶幹麻舉 懷念外角海喔 10/02 19:28
推 jason00650: 啦啦隊ㄧ直有回音 聽到很煩 10/02 19:30
推 straight0711: 36 10/02 19:30
→ karen71014: 36 10/02 19:31
推 encorej77107: HRRRRRRRRRRRRRRRRRRRRRRRRRRRRRRRRRRRRRRRRRRR 10/02 19:31
推 jj1004: 差一分的確危險 但是也要喵喵壓的住.... 10/02 19:31
→ smithyu: 回音問題請洽民視 10/02 19:31
推 yyc1217: MVP機率 +5% 10/02 19:32
→ jason00650: 這收音真的很差 10/02 19:33
→ e347331: 喝50嵐 10/02 19:33
推 encorej77107: 第3第4戰績真的不重要 看個人數據就好 10/02 19:33
推 ghast159: 他是不是不爽了 10/02 19:34
推 lucy07030703: 我猜有 10/02 19:34
推 evaras: 阿不就是傳歪了 主播在不懂啥 10/02 19:34
推 vuelvely76: 義大還有機會嗎~~挑戰賽? 10/02 19:35
推 rapf1111: 就傳歪阿 他當然知道要抓雙殺 10/02 19:35
推 PCC2003: 游擊是有慢一點點,但那是因為賈太快接到球 10/02 19:35
→ Isaac: 就傳歪啊 立群在不解啥 莫名其妙.... 10/02 19:37
推 ToTaiwan: 無限支持40轟!!!!!!!! 10/02 19:37
→ cobras638: 高國輝真的有機會達成40轟 還有回音問題請洽民視 10/02 19:37
噓 jengjian: 沒梗硬要聊的主播 10/02 19:38
推 sinon2mayday: 主審的好球帶在幹嘛 10/02 19:38
→ hayato24: 傳歪是一回事,重點是賈怎麼會傳那麼用力 10/02 19:38
推 ruchael: 唯一的缺點居然是太帥@@ 10/02 19:46
推 encorej77107: EEEEEEEEE 10/02 19:46
推 syong: 陽冠威的守備..... 10/02 19:46
推 ruchael: 咖啡的扣打應該要用上了 10/02 19:52
推 lucy07030703: 挑戰 10/02 19:53
推 yyc1217: 有點離壘接球的感覺 10/02 19:53
→ smithyu: 剛才講完數據.主播唉了一聲.有發生什麼事嗎? 10/02 19:53
→ smithyu: 電視挑戰中 10/02 19:54
推 ruchael: 感覺腳有離開一咪咪... 10/02 19:55
噓 Jayferrari: 齁!看轉播超吵的!有沒有義大現場很吵的八卦.... 10/02 19:55
推 thirdblue: 看真久 10/02 19:55
推 kyoin: 看這麼久該不會要維持原判了 10/02 19:55
推 buzz0116: 看很久 有機會safe 10/02 19:56
推 sinon2mayday: 原判 10/02 19:56
→ sinon2mayday: 腳離開了== 10/02 19:56
噓 n919122: 要不然要去球場當死人 都不要講話嗎 10/02 19:57
→ smithyu: 覺得轉播吵其實可以開靜音 10/02 19:59
推 u06tp60s: 鄭博壬代投手教練喔= = 10/02 20:00
推 thirdblue: 澄清湖收音到底擺哪阿 明明現場回音不會這樣…… 10/02 20:00
噓 waterways: 出現啦 散漫跑壘 10/02 20:02
→ acwz7362: 現場沒回音 是轉播收音的問題 10/02 20:02
推 a27647535: 慢跑 10/02 20:03
推 sesd: 義大真是太爽了 連這種2棒腿哥型的 都有慢跑的權力了 10/02 20:03
噓 yesno41: 漏兩次還差那麼多... 10/02 20:03
→ sesd: 有點速度的全力跑都能 safe 散漫浪費了一個大局 10/02 20:03
噓 Ogrish: 那位jay有進場看過球嗎? 10/02 20:04
→ smithyu: MIC在哪要問民視. 10/02 20:04
推 loveinmars: 倪好爛喔= = 10/02 20:05
推 sesd: 義大真悲劇 50萬的狀元DL 40多萬的ERA 6+ 10/02 20:10
推 KG8807037: DL還不是猴子害的..基歪三小 10/02 20:12
推 ruchael: 三個揮空啊.......... 10/02 20:13
推 TAKEZOU: 用來吃吃局數的4號先發要40萬 笑死 10/02 20:14
推 straight0711: 平飛被接殺王 10/02 20:15
推 yyc1217: 大義月球漫步 10/02 20:16
推 sinonyam: 大義XDDDDDD 10/02 20:16
推 nanako24: 好厲害 XD 10/02 20:17
推 ruchael: 大義好猛XD 10/02 20:17
推 monkeyannie: 大義好強! 10/02 20:17
推 ToTaiwan: 大義XDD 10/02 20:17
推 u06tp60s: 大義比萊恩厲害! 10/02 20:18
→ smithyu: 主播說國輝又不舒服了........ 10/02 20:18
推 Ogrish: 還是給義大去打總冠軍吧 爪根本被LM打好玩der~重播戲碼 10/02 20:25
推 sinonyam: 大義發名片 DJ放小姐這是我的名片XDDD 10/02 20:26
推 ivan609: 剛剛那是王信民?? 10/02 20:30
→ smithyu: 是的.當教練帶球隊來看球 10/02 20:37
推 yyc1217: 倪福德和羅博特溝通不用翻譯 10/02 20:38
推 WongTakashi: 都會講英文 幹嘛叫翻譯上去~ 10/02 20:40
推 yyc1217: 泰山QQ 好久不見 10/02 20:44
推 TAKEZOU: 隔壁搶冠軍和這邊搶狀元一樣精彩 10/02 20:48
推 shinichi: 炸裂~~~~~~~ 10/02 20:54
推 ivan609: BS..... 10/02 20:54
→ a8330028: NI的勝投一直被搞丟 10/02 20:55
推 gracefss: 四隊都炸了 10/02 20:55
推 yyc1217: 郭阜林好帥<3 10/02 20:55
→ rock0525: 火牛出品... 10/02 20:55
→ MikeNapoli: 小鄧鄧在搞笑嗎 10/02 20:56
推 forfan: 義大志在狀元 10/02 20:56
推 hhht1994: 這跑壘蠻有喜感的 10/02 20:56
推 maxwu1989: 嘴角上揚...XD 10/02 20:56
→ rock0525: 抓球不抓外也抓跑者..... 10/02 20:57
推 NCKU: 觀念觀念 10/02 20:57
推 e124196: 這樣也能死..... 10/02 21:02
推 yyc1217: 從三壞等到三振 都沒揮棒 10/02 21:02
推 sinonyam: 胡的腳怎麼了 10/02 21:06
推 ivan609: 紅猴說胡在欺敵XD 10/02 21:06
→ ivan609: 火哥黏喔~~ 10/02 21:06
→ ivan609: 嘔吧!!!!!!!!!!!!!!!!!!!!!!!!! 平手!!!! 10/02 21:07
推 william7713: BS 10/02 21:07
推 nanako24: 火火火火火 10/02 21:07
推 m85037: 爽 10/02 21:07
推 o0991758566: 火哥最近太神了 10/02 21:07
→ Hui859: 你拿洋投來 火哥醒了吧 不會算 10/02 21:07
→ rock0525: 投手都很慘.... 10/02 21:07
→ ivan609: 對到歪果人的火哥最恐怖了 10/02 21:07
→ maydayholic: 再質疑不能進CT啊 10/02 21:08
推 yyc1217: 12強選對了 10/02 21:08
推 murray: 銳克真的超弱 10/02 21:08
推 sinonyam: 入選CT buff生效 10/02 21:08
推 kilakit: 輝輝全壘打樓下1000p 10/02 21:08
推 william7713: GO 10/02 21:09
推 werger: 我覺得銳克觀念真的很好 10/02 21:09
推 Ogrish: 胡隊長真的有掰咖嗎?真的是欺敵 10/02 21:09
推 thirdblue: !!!!! 10/02 21:09
推 straight0711: 37!!! 10/02 21:09
→ werger: HR 10/02 21:09
→ william7713: 賺到1000p XD 10/02 21:09
推 EdisonDeng: 37 10/02 21:09
→ frank123ya: 37..................... 10/02 21:09
→ thirdblue: 37轟!!!! 10/02 21:09
推 kress: 37囉~~~ 10/02 21:09
推 jj1004: 這洋投有夠弱XDDDD 10/02 21:09
→ nanako24: 37 10/02 21:09
推 lucy07030703: 靠我在家大尖叫阿阿阿阿啊 10/02 21:09
→ werger: 哭哭 差一樓 10/02 21:09
→ o0991758566: 太扯了 40轟有望!!!!!!!!!!! 10/02 21:09
→ mjwang3: 37啦! 10/02 21:10
→ smithyu: 不舒服的國輝最恐怖~~~~~~~ 10/02 21:10
推 encorej77107: HRRRRRRRRRRRRRRRRRRRRRRRRRRR 10/02 21:10
→ EdisonDeng: 太扯了 10/02 21:10
→ tw88: 剛好開電視......舒服啊 10/02 21:10
→ rock0525: 加薪沒問題了啦.....XDDDD 10/02 21:10
推 yyc1217: 剛剛真的有不舒服 防護員有關心了一下 10/02 21:10
→ ToTaiwan: 40目標不變!!!!!!!!!!!!!!!!!!!!!!! 10/02 21:10
→ kress: 稍微紅中一點就撈出去 10/02 21:11
推 mithralin: 現場放say goodbye有夠機車 10/02 21:11
推 rabbit14175: 不舒服的國輝基本無敵 10/02 21:11
→ nichaellin: 義大剩幾場阿 10/02 21:11
推 u06tp60s: 格格!! 10/02 21:11
→ ericpitt: 這場不算 剩9場! 10/02 21:11
→ jj1004: 神全:高國輝你這樣打點我要輸了....都清光光 10/02 21:12
→ ericpitt: 這兩隊 你說真的在拼狀元? 那有必要打這麼刺激嗎? XDD 10/02 21:12
推 kress: 神拳表示:我的滷蛋... 10/02 21:12
推 lightpisces: 水啦………… 10/02 21:12
推 emperor: 兩邊炸來炸去的XD 10/02 21:13
推 ruchael: 會不會太扯啊 10/02 21:13
→ kress: 今天四隊在打季後賽嗎 互相超來超去的 10/02 21:13
推 yyc1217: 神全近況真的有點差 10/02 21:13
→ william7713: 感謝kilakit 已收到 :) 10/02 21:13
推 seth02788: 問一下,如果最後結束義大贏球,那先發倪福德有勝投嗎 10/02 21:14
推 o0991758566: 今天也太多全壘打 10/02 21:14
→ smithyu: 沒有 10/02 21:14
→ william7713: 沒有 現在是賴勝投資格 10/02 21:14
→ yyc1217: 明天那個外野出口附近應該會坐滿球迷XDD 10/02 21:14
推 nichaellin: 當然沒有囉~ 10/02 21:14
→ cht211: 神全兩安狀況還差啊 標準到底有多高 10/02 21:15
推 encorej77107: 速度有點慢 10/02 21:16
推 michael0725: 羅嘉仁9上會上嗎 10/02 21:19
推 light531: 我犀板標好忙要一直改 10/02 21:20
推 Ogrish: 平偉:不要起爭議 10/02 21:22
→ ivan609: 老皮復活了??? 三上三下!! 10/02 21:22
推 jj1004: 老皮復活了 10/02 21:22
推 unclemasaki: 這顆漂亮 10/02 21:22
推 TAKEZOU: 搶狀元也可以打得這麼有話題 10/02 21:22
推 encorej77107: 控球還是不行 10/02 21:22
→ encorej77107: 跟季初比還差很多 10/02 21:22
推 encorej77107: 外角海 10/02 21:24
推 yyc1217: 這麼快就換了?! 10/02 21:27
推 u06tp60s: 投得好好的幹嘛換 10/02 21:27
噓 sinon2mayday: 要裱義大幾次? 10/02 21:31
推 mimiiy: SAFE.... 10/02 21:32
推 alsk1566: 好像真的safe?! 10/02 21:32
→ kreuz1221: 這不是安全上壘嗎=_=? 10/02 21:32
推 m85037: 誤判 10/02 21:32
推 buzz0116: 悲情判決 10/02 21:32
→ yyc1217: air tag 10/02 21:32
推 k33536: 沒tag到XD 10/02 21:32
推 KG8807037: 怎麼看都是safe...媽的裁判到底是怎樣... 10/02 21:32
噓 tw88: 太扯了吧哪裡是奧啦 殘判 10/02 21:32
推 minibao319: 怎們看都是SAFE... 10/02 21:32
噓 encorej77107: 義大打誰都會被錶 10/02 21:32
→ Uncontinue: 揮過去沒TAG到的樣子 10/02 21:33
推 kreuz1221: 沒挑戰權就開始猛錶=_= 10/02 21:33
推 buzz0116: 沒挑戰權當然要婊一下 10/02 21:34
推 michael0725: 高捷進站 10/02 21:35
噓 tw88: 這運動就給殘判玩就好了啊 10/02 21:35
推 ivan609: 咖啡扣打!!! 10/02 21:36
推 sinon2mayday: 少一分 10/02 21:36
推 k33536: 鳥鳥鳥安 10/02 21:36
推 thirdblue: 扣打出現 10/02 21:36
推 mimiiy: 咖啡扣打出現 10/02 21:36
→ william7713: 可以在打到三棒嗎..XD 10/02 21:37
推 Ogrish: 咖啡~終於! 10/02 21:37
推 PCC2003: 沒解決咖啡,恐怕要爆了 10/02 21:37
→ ivan609: 輪的到國輝上來嗎XDD 10/02 21:37
推 nichaellin: 胡三揮QQ 10/02 21:38
→ ivan609: 何南德???????????? 10/02 21:38
→ hsr7016: 為啥牛棚會有何南得.............. 10/02 21:38
推 mimiiy: 先發狂爆,拉回後援嗎 ... 10/02 21:38
噓 CyrilHuang: 何??????? 10/02 21:39
噓 hbk20491: 葉君璋一直在秀下限 10/02 21:39
推 yyc1217: 剛剛不是看到煥揚在練投嗎= = 10/02 21:40
噓 o0991758566: ... 10/02 21:40
推 dtonesla: 何先生... 10/02 21:40
→ freeclouds: 怎麼不讓火球仁救援 10/02 21:40
推 jj1004: 搶狀元用何幹麻..... 10/02 21:40
推 lucy07030703: 這。。@@ 10/02 21:40
噓 wh0386: 問號? 10/02 21:40
→ DarkKnight: 小葉讚讚讚 10/02 21:40
→ hsr7016: 何不是昨天的預定先發.......... 10/02 21:40
→ wh0386: 到時候再中二日先發嗎? 10/02 21:41
推 workhero: 被追平,國輝再上來打 10/02 21:41
推 sesd: 小葉讚讚讚 亂搞第一名 美帝教的 10/02 21:42
推 dudeboy: 葉總:你投不好,羅49就要上來了喔 10/02 21:43
→ BaRanKa: 這兩隊在幹啥 何怎又去後援 10/02 21:43
推 TAKEZOU: 搶狀元還不煥揚投ˊ 10/02 21:43
噓 idontbirdu: 香腸LO49兩個教練都不敢用的都被選到28名單...... 10/02 21:43
推 tw88: 沒什麼 想贏而已啦 10/02 21:43
→ DarkKnight: 所以 郭的心臟比葉大 10/02 21:44
推 OrangeSunny: 午午快出來護航葉不悔啊 XDDDDDDDDDD 10/02 21:45
推 calvinh: K 10/02 21:45
推 nichaellin: 我牛迷 我寧願看到這種調度 也不要看到火球仁 10/02 21:45
→ OrangeSunny: 惡搞何南德 亂操希克 真的很強 10/02 21:46
推 ruchael: 會贏的調度就是好調度...管你誰來投 10/02 21:47
推 idontbirdu: 我牛迷 我寧願看到火球仁 我也不要看到這種調度 10/02 21:47
推 nichaellin: 又被惡搞 10/02 21:47
推 ivan609: 再見三振!!!!!!!!!!!!! 10/02 21:47
推 sinon2mayday: OS你要跳槽就乖乖支持兄弟 不要什麼都提義大 10/02 21:47
推 pdr666333: 鐵總XD 10/02 21:47
→ nichaellin: 靠自己 10/02 21:47
推 JoneNan: XDDDDDDD 10/02 21:48
推 cht211: 一壘被挑戰 現在報復了 10/02 21:48
推 alsk1566: 還是靠自己...XD 10/02 21:48
推 sesd: 洋投沒什麼人權 操死一個 在洗掉就好了 台灣都這樣 10/02 21:48
推 werger: 再見K~我喵的狀元之路又順利地向前邁進 10/02 21:48
推 encorej77107: 爪爪今年如果輸了 換LM要擔心OS跳槽過去XDDDDDDDDD 10/02 21:48
→ rock0525: 不用爆爆的對的交給郭去用....XDDDD 10/02 21:48
→ Isaac: no name又轉後援 被惡搞? 10/02 21:48
→ superYi: 一壘嬸鬼遮眼! 10/02 21:48
推 muching: 不派羅是對的 10/02 21:49
推 WeAntiTVBS: 一壘審 新一點零B12拿去啦 10/02 21:49
→ JASONZOU: 統一下半季淘汰+墊底數字亮燈了 10/02 21:49
推 djayasfknn: 哈哈no name 10/02 21:49
推 Uncontinue: 義大的日常 都最後一顆好球了還是要被婊 10/02 21:49
推 yyc1217: 派lo49的話現在說不定已經被追平了 10/02 21:50
→ yyc1217: MVP 高國輝 10/02 21:50
推 maydayholic: OS又消失了 10/02 21:50
噓 DukeMonkey: os從七月跳槽你爪就一直提我牛 根本由愛生恨 10/02 21:51
推 m85037: 高國輝 跳舞 10/02 21:52
→ yyc1217: 輝輝看起來好不舒服 跳舞都沒什麼力 10/02 21:53
推 leehom1104: 無言以對XD 10/02 21:54
→ smithyu: 左邊那包是什麼?? 10/02 21:54
→ BaRanKa: 高看起來好累啊 N要去倒水 10/02 21:55
推 tkastrology: CPBL的網站怎麼進步去???????? 10/02 21:55
→ smithyu: 又是NI ~~~~~~~~ 10/02 21:55
推 OrangeSunny: e77 我是希望你犀去打總冠軍的喔 ^_^ 10/02 21:55
推 Sheng98: cpbl 官網只要遇到比賽結束就卡 10/02 21:55
推 PCC2003: 倪勝投飛了還是很開心XD 10/02 21:55
→ OrangeSunny: 我爪第二順位搶大物比較實際 10/02 21:56
推 djayasfknn: 冰塊有點落漆 10/02 21:56
推 YOYOsister: 輝輝賽前一定有烙賽 10/02 21:57
→ smithyu: 賽中腳好像有狀況.防護員有過去看他 10/02 21:58